This demonstration page uses our WeatherBlox Daily Observations layout. Learn more.

Left ArrowRight Arrow

34.02893, -84.19858

Hourly Observations for April 5, 2022

Temp ( °F °C ) Dew Point ( °F °C ) Humidity (%) Winds ( mph kmh ) Pressure ( in mb ) Visibility ( mi km ) Precip ( " mm )
12:53 am 00:53 Clear 50 10 40 4.4 68 68 Calm 29.94 1014 10 16 0.00 0.00
1:53 am 01:53 Clear 49 9.4 40 4.4 71 71 Calm 29.93 1014 10 16 0.00 0.00
2:53 am 02:53 Clear 48 8.9 41 5 77 77 Calm 29.91 1013 10 16 0.00 0.00
3:53 am 03:53 Clear 48 8.9 40 4.4 74 74 Calm 29.88 1012 10 16 0.00 0.00
4:53 am 04:53 Clear 52 11.1 40 4.4 64 64 NNE 3 6 29.86 1011 10 16 0.00 0.00
5:53 am 05:53 Clear 50 10 40 4.4 68 68 VRB 3 6 29.84 1011 10 16 0.00 0.00
6:53 am 06:53 Clear 51 10.6 41 5 69 69 Calm 29.83 1010 10 16 0.00 0.00
7:53 am 07:53 Mostly Sunny 52 11.1 42 5.6 69 69 Calm 29.85 1011 10 16 0.00 0.00
8:53 am 08:53 Mostly Sunny 54 12.2 45 7.2 72 72 VRB 3 6 29.81 1009 10 16 0.00 0.00
9:13 am 09:13 Mostly Cloudy with Nearby Thunderstorms 55 12.8 46 7.8 72 72 Calm 29.85 1011 10 16 0.00 0.00
9:17 am 09:17 Mostly Cloudy with Thunderstorms 55 12.8 47 8.3 74 74 Calm 29.87 1012 10 16 0.00 0.00
9:43 am 09:43 Cloudy with Nearby Thunderstorms 53 11.7 50 10 89 89 Calm 29.88 1012 3 4 0.04 1.02
9:53 am 09:53 Cloudy with Nearby Thunderstorms 52 11.1 51 10.6 97 97 NE 3 6 29.85 1011 2 3 0.08 2.03
10:02 am 10:02 Cloudy with Light Rain 53 11.7 51 10.6 93 93 Calm 29.87 1012 3 5 0.01 0.25
10:35 am 10:35 Cloudy with Nearby Thunderstorms 53 11.7 51 10.6 93 93 VRB 5 7 29.85 1011 3 5 0.07 1.78
10:49 am 10:49 Cloudy with Rain 54 12 52 11 94 94 VRB 5 7 29.84 1011 3 4 0.11 2.79
10:50 am 10:50 Cloudy with Rain 53 11.7 52 11.1 96 96 VRB 5 7 29.84 1010 3 4 0.11 2.79
11:02 am 11:02 Cloudy with Thunderstorms 53 11.7 51 10.6 93 93 VRB 6 9 29.82 1010 2 3 0.05 1.27
11:29 am 11:29 Cloudy with Nearby Thunderstorms 53 11.7 52 11.1 96 96 Calm 29.83 1010 2 3 0.16 4.06
11:38 am 11:38 Cloudy with Rain 53 11.7 52 11.1 96 96 VRB 3 6 29.81 1010 1 2 0.21 5.33
11:53 am 11:53 Cloudy with Rain 53 11.7 52 11.1 96 96 VRB 3 6 29.82 1010 2 2 0.30 7.62
12:05 pm 12:05 Cloudy with Nearby Thunderstorms 53 11.7 52 11.1 96 96 VRB 3 6 29.82 1010 1 2 0.08 2.03
12:17 pm 12:17 Cloudy with Heavy Rain 53 11.7 52 11.1 96 96 VRB 7 11 29.81 1010 1 2 0.19 4.83
12:53 pm 12:53 Cloudy with Heavy Rain 53 11.7 53 11.7 100 100 VRB 5 7 29.78 1009 1 2 0.45 11.43
1:48 pm 13:48 Cloudy with Heavy Rain 55 13 54 12 94 94 VRB 6 9 29.73 1007 1 2 0.45 11.43
1:53 pm 13:53 Cloudy with Heavy Rain 55 12.8 55 12.8 100 100 ESE 5 7 29.74 1007 2 2 0.48 12.19
2:14 pm 14:14 Cloudy with Heavy Rain 56 13.3 56 13.3 100 100 WNW 15 24 29.77 1008 1 1 0.24 6.10
2:17 pm 14:17 Cloudy with Heavy Rain 58 14.4 56 13.3 93 93 VRB 5 7 29.73 1007 1 1 0.41 10.41
2:19 pm 14:19 Cloudy with Heavy Rain 58 14.4 57 13.9 97 97 VRB 3 6 29.72 1007 0 0 0.49 12.45
2:25 pm 14:25 Cloudy with Rain 57 13.9 57 13.9 100 100 ESE 5 7 29.74 1007 1 1 0.53 13.46
2:29 pm 14:29 Cloudy with Rain 58 14.4 57 13.9 97 97 SE 6 9 29.72 1007 1 2 0.55 13.97
2:37 pm 14:37 Cloudy with Rain 58 14.4 58 14.4 100 100 Calm 29.73 1007 2 3 0.59 14.99
2:53 pm 14:53 Cloudy with Light Rain 57 13.9 57 13.9 100 100 Calm 29.74 1007 3 4 0.65 16.51
3:00 pm 15:00 Cloudy with Light Rain 58 14.4 57 13.9 97 97 VRB 3 6 29.73 1007 5 8 0.00 0.00
3:53 pm 15:53 Mostly Cloudy 59 15 59 15 100 100 SE 10 17 29.63 1003 10 16 0.03 0.76
4:09 pm 16:09 Cloudy 60 15.6 59 15 96 96 SSE 8 13 29.63 1003 10 16 0.00 0.00
4:53 pm 16:53 Cloudy 63 17.2 61 16.1 93 93 S 14 22 29.61 1003 10 16 0.00 0.00
5:42 pm 17:42 Partly Cloudy 64 17.8 62 16.7 93 93 S 10 17 29.60 1002 10 16 0.00 0.00
5:53 pm 17:53 Partly Cloudy 64 17.8 62 16.7 93 93 SSW 8 13 29.61 1003 10 16 0.00 0.00
6:13 pm 18:13 Mostly Cloudy 64 17.8 61 16.1 90 90 SSW 10 17 29.61 1003 10 16 0.00 0.00
6:53 pm 18:53 Mostly Cloudy 65 18.3 61 16.1 87 87 SW 12 19 29.63 1004 10 16 0.00 0.00
7:53 pm 19:53 Mostly Cloudy 64 17.8 59 15 84 84 SW 12 19 29.67 1005 10 16 0.00 0.00
8:00 pm 20:00 Cloudy 63 17.2 59 15 87 87 SW 15 24 29.66 1005 10 16 0.00 0.00
8:53 pm 20:53 Clear 62 16.7 58 14.4 86 86 SW 9 15 29.69 1005 10 16 0.00 0.00
9:53 pm 21:53 Clear 61 16.1 58 14.4 90 90 SW 9 15 29.72 1007 10 16 0.00 0.00
10:21 pm 22:21 Mostly Cloudy 60 15.6 58 14.4 93 93 SW 10 17 29.73 1007 10 16 0.00 0.00
10:53 pm 22:53 Cloudy 61 16.1 58 14.4 90 90 SW 13 20 29.73 1007 10 16 0.00 0.00
11:22 pm 23:22 Cloudy 61 16.1 58 14.4 90 90 SW 12 19 29.73 1007 10 16 0.00 0.00
11:53 pm 23:53 Cloudy 61 16.1 58 14.4 90 90 SW 13 20 29.75 1007 10 16 0.00 0.00

Powered by AerisWeather